Sidnaw, MI

3:25 PM EDT on September 04, 2015 (GMT -0400)
MesoWest | | Change Station
CLOSE
Current Station
Personal Weather Station
Location: Kenton, MI
Elevation: 1521 ft
Nearby Weather Stations

Elev 1521 ft 46.48 °N, 88.99 °W | Updated 35 minutes ago

Clear
Clear
83 °F
Feels Like 84 °F
N
4
Wind Variable Wind from ESE
Gusts 13.0 mph

Today
High -- | Low -- °F
--% Chance of Precip.
Yesterday
High -- | Low -- °F
Precip. -- in
7:18 AM 8:28 PM
Waning Gibbous, 57% visible
Pressure 30.08 in
Visibility 10.0 miles
Clouds Clear
Heat Index 84 °F
Dew Point 63 °F
Humidity 50%
Rainfall in
Snow Depth Not available.
UV 7 out of 12
Pollen 9.80 out of 12
Air Quality Not available.
Flu Activity Not available.
METAR KLNL 041915Z AUTO 11007G15KT 10SM CLR 28/16 A3008 RMK AO2 T02780158
Pressure 30.08 in
Visibility 10.0 miles
Clouds Clear
Heat Index 84 °F
Dew Point 63 °F
Humidity 50%
Rainfall in
Snow Depth Not available.
UV 7 out of 12
Pollen 9.80 out of 12
Air Quality Not available.
Flu Activity Not available.
METAR KLNL 041915Z AUTO 11007G15KT 10SM CLR 28/16 A3008 RMK AO2 T02780158

10-Day Weather Forecast

×

Almanac

Astronomy

Sep. 04, 2015 Rise Set
Actual Time
Civil Twilight
Nautical Twilight
Astronomical Twilight
Moon
Length of Visible Light
Length of Day
Tomorrow will be .
, % of the Moon is Illuminated

Today's Extremes

State Highs State Lows

Community

WunderPhotos

Upload Photos

1,852,271 photos uploaded!

WunderBlogs® & News

Nearby

Air Quality

  Air Quality AQ Index Pollutant
Not available.

Snow Depth

Station Depth Elevation

Earthquake Activity

City Distance Mag. Time & Date
Minimum magnitude displayed is 2.5.

Coastal Water Temperatures

Place Temperature

Stations

Nearby Weather Stations

Station Location Temp. Windchill Dew Point Humidity Wind Precip. Elev Updated Type